STARLINK-35989, 66819

Orbit data source: Space-Track

STARLINK-35989, 66819 is a payload satellite owned by SpaceX/Seattle (US) in LEO that was launched on Mon, 01 Dec 2025 UTC via an FALCON 9 launch vehicle from the Air Force Eastern Test Range (AFETR). Payload-class satellites include a variety of spacecraft equipped with specific instruments for various scientific and technological missions. These include communications satellites like Starlink; space stations such as the ISS; scientific satellites like the Hubble; Earth observation satellites from companies like Planet Labs, Umbra, and HawkEye 360; GPS; miniature CubeSats for education and research; and military/defense satellites.

Loading next visibility...
Identifier
66819, 2025-278AE
Orbit
LEO
Country
Flag of USUS
Related business
Manufacturer
SpaceX/Seattle
Mission
Operational Commercial Communications
Bus & Motor
STARLINK V2MO, Unknown motor
Mass
575 kg wet, ~530 kg dry
Launch date (UTC)
2025-12-01 (7 months ago)
Launch vehicle
FALCON 9
Launch site
Air Force Eastern Test Range (AFETR)
Object type
Payload
Rocket body
Debris
Shape & HBR
Box + 2 Pan, 17.7 m
Radar Cross Section
36.964 m², Large (>1 m²)

Expand to show TLE details & history
Last TLE update: 14 hours ago

TLE from 14 hours ago
0 STARLINK-35989
1 66819U 25278AE  26171.25078012  .00011320  00000-0  42013-3 0  9996
2 66819  42.9981 255.2218 0001525 269.4278  90.6399 15.27589482 30898
Epoch: 2026-06-20T06:01Z
TLE epoch observation values (Epoch: 2026-06-20T06:01:07.402Z)
Latitude
-0°
Longitude
-103.52714°
Altitude
482.808 km
Speed
7.626 km/s
True Right ascension
17h 00m 53s
True Declination
0° 00' 00"
Sunlit
Object was in full shadow at epoch
Visualization orbit readout
Latitude
Unknown
Longitude
Unknown
Altitude
Unknown
Speed
Unknown
Apparent Right ascension
Unknown
Apparent Declination
Unknown
Sunlit
N/A
Visualization observer readout
Local Sidereal Time
07:15:06
Azimuth
Unknown
Elevation
Unknown
Doppler factor
Unknown
Orbital elements
Apogee altitude
486.013 km
Perigee altitude
483.92 km
Semi-major axis
6,863.103 km
Eccentricity
0.00015
Inclination
42.9981°
RAAN
255.2218°
Arg. of periapsis
269.4278°
True anomaly
90.65737°
Mean anomaly
90.6399°
Eccentric anomaly
90.64864°
Mean motion
3.81735 °/min
Orbital period
94.31 mins
BSTAR
0.00042013
Loading maneuver chart data...
Computing Atmospheric mass density...
Loading historical data...
Loading historical data...
Loading historical data...
Loading historical data...
Loading historical data...
Loading historical data...
Loading historical data...

Documentation

Showing up to 5 results
|